Coldwater, MI

11:23 AM EST on February 20, 2018 (GMT -0500)
Branch County Memorial

Weather History for KOEB - October, 2012

Change the Weather History Date:

Tuesday, October 30, 2012

  Actual Average (KJYM) Record (KJYM)
Temperature  
Mean Temperature 38 °F -  
Max Temperature 40 °F 55 °F 76 °F (1950)
Min Temperature 36 °F 33 °F 15 °F (1966)
Degree Days  
Heating Degree Days 27    
Moisture  
Dew Point 33 °F    
Average Humidity 83    
Maximum Humidity 94    
Minimum Humidity 48    
Precipitation  
Precipitation 0.00 in - - ()
Sea Level Pressure  
Sea Level Pressure 29.62 in    
Wind  
Wind Speed 18 mph (NNW)    
Max Wind Speed 25 mph    
Max Gust Speed 36 mph    
Visibility 7 miles    
Events Rain , Snow    
Averages and records for this station are not official NWS values.
T = Trace of Precipitation, MM = Missing Value Source: NWS Daily Summary

Daily Weather History Graph

Daily Weather History Graph

Search for Another Location

Airport or City:

Trip Planner

Search our weather history database for the weather conditions in past years. The results will help you decide how hot, cold, wet, or windy it might be!

Date:

Astronomy

Oct. 30, 2012 Rise Set
Actual Time 8:10 AM EDT 6:36 PM EDT
Civil Twilight 7:41 AM EDT 7:05 PM EDT
Nautical Twilight 7:09 AM EDT 7:37 PM EDT
Astronomical Twilight 6:36 AM EDT 8:10 PM EDT
Moon 7:03 PM EDT (10/30) 8:58 AM EDT (10/30)
Length of Visible Light 11h 23m
Length of Day
10h 25m
Full, 99% of the Moon is Illuminated
Oct 30
Full
Nov 6
Last Quarter
Nov 13
New
Nov 20
First Quarter
Nov 28
Full

Hourly Weather History & Observations

Time (EDT) Temp. Windchill Dew Point Humidity Pressure Visibility Wind Dir Wind Speed Gust Speed Precip Events Conditions
12:15 AM 40.3 °F 31.6 °F 22.8 °F 50% 29.80 in 10.0 mi NNW 17.3 mph 29.9 mph N/A   Clear
12:34 AM 40.3 °F 29.9 °F 22.8 °F 50% 29.79 in 10.0 mi North 24.2 mph 35.7 mph N/A   Clear
12:54 AM 40.3 °F 31.0 °F 22.8 °F 50% 29.77 in 10.0 mi NNW 19.6 mph 28.8 mph N/A   Scattered Clouds
1:15 AM 40.3 °F 30.7 °F 23.0 °F 50% 29.76 in 10.0 mi NNW 20.7 mph 27.6 mph N/A   Mostly Cloudy
1:34 AM 40.5 °F 30.9 °F 22.6 °F 49% 29.75 in 10.0 mi North 20.7 mph 31.1 mph N/A   Overcast
1:54 AM 40.5 °F 30.7 °F 22.5 °F 49% 29.74 in 10.0 mi NNW 21.9 mph 29.9 mph N/A   Overcast
2:15 AM 40.6 °F 32.0 °F 22.1 °F 48% 29.73 in 10.0 mi North 17.3 mph 34.5 mph N/A   Overcast
2:34 AM 40.5 °F 30.2 °F 22.5 °F 49% 29.71 in 10.0 mi North 24.2 mph 33.4 mph N/A   Overcast
2:54 AM 40.3 °F 31.3 °F 22.8 °F 50% 29.70 in 10.0 mi North 18.4 mph 29.9 mph N/A   Overcast
3:15 AM 39.7 °F 29.0 °F 23.9 °F 53% 29.70 in 10.0 mi NNW 25.3 mph 34.5 mph N/A   Overcast
3:54 AM 38.3 °F 27.8 °F 26.4 °F 62% 29.68 in 5.0 mi NNW 21.9 mph 31.1 mph N/A   Unknown
4:15 AM 37.8 °F 27.7 °F 28.2 °F 68% 29.68 in 7.0 mi North 19.6 mph 28.8 mph N/A Snow Light Snow
4:34 AM 37.4 °F 26.9 °F 29.5 °F 73% 29.67 in 7.0 mi North 20.7 mph 29.9 mph N/A Snow Light Snow
4:55 AM 36.9 °F 27.8 °F 30.6 °F 78% 29.66 in 7.0 mi NNW 15.0 mph 24.2 mph N/A   Overcast
5:15 AM 36.5 °F 27.4 °F 31.1 °F 81% 29.65 in 7.0 mi NNW 15.0 mph 24.2 mph N/A Snow Light Snow
5:34 AM 36.1 °F 26.2 °F 31.1 °F 82% 29.64 in 7.0 mi NNW 17.3 mph 23.0 mph N/A Snow Light Snow
5:55 AM 36.1 °F 26.2 °F 31.5 °F 83% 29.64 in 7.0 mi NNW 17.3 mph 21.9 mph N/A Snow Light Snow
6:14 AM 36.0 °F 25.3 °F 31.5 °F 84% 29.63 in 5.0 mi NNW 19.6 mph 24.2 mph N/A Snow Light Snow
6:34 AM 36.1 °F 25.9 °F 32.0 °F 85% 29.62 in 7.0 mi NNW 18.4 mph 31.1 mph N/A Rain Light Rain
6:55 AM 36.1 °F 26.2 °F 32.0 °F 85% 29.61 in 7.0 mi NNW 17.3 mph 24.2 mph N/A Rain Light Rain
7:14 AM 36.5 °F 27.0 °F 32.4 °F 85% 29.61 in 7.0 mi NNW 16.1 mph 29.9 mph N/A Rain Light Rain
7:34 AM 36.5 °F 26.7 °F 33.1 °F 87% 29.60 in 5.0 mi NNW 17.3 mph 25.3 mph N/A Rain Light Rain
7:55 AM 36.7 °F 26.6 °F 33.4 °F 88% 29.59 in 5.0 mi NNW 18.4 mph 31.1 mph N/A Rain Light Rain
8:14 AM 36.7 °F 26.6 °F 34.0 °F 90% 29.59 in 7.0 mi NNW 18.4 mph 24.2 mph N/A Rain Light Rain
8:34 AM 36.7 °F 28.4 °F 34.0 °F 90% 29.60 in 4.0 mi NNW 12.7 mph 24.2 mph N/A Snow Light Snow
8:55 AM 36.9 °F 26.8 °F 34.2 °F 90% 29.59 in 5.0 mi NNW 18.4 mph 28.8 mph N/A   Overcast
9:14 AM 36.9 °F 27.5 °F 34.3 °F 91% 29.59 in 4.0 mi NNW 16.1 mph 25.3 mph N/A   Overcast
9:34 AM 36.7 °F 26.3 °F 34.3 °F 91% 29.59 in 5.0 mi NNW 19.6 mph 29.9 mph N/A Snow Light Snow
9:55 AM 36.9 °F 27.1 °F 34.7 °F 92% 29.59 in 3.0 mi NNW 17.3 mph 23.0 mph N/A   Overcast
10:14 AM 37.2 °F 27.9 °F 35.1 °F 92% 29.58 in 1.8 mi NNW 16.1 mph 26.5 mph N/A Rain Light Rain
10:35 AM 37.6 °F 28.1 °F 35.4 °F 92% 29.57 in 4.0 mi NNW 17.3 mph 28.8 mph N/A Rain Light Rain
10:55 AM 37.4 °F 29.3 °F 35.2 °F 92% 29.57 in 7.0 mi North 12.7 mph 28.8 mph N/A Rain Light Rain
11:14 AM 37.6 °F 27.4 °F 35.1 °F 91% 29.57 in 5.0 mi NNW 19.6 mph 27.6 mph N/A Rain Light Rain
11:35 AM 37.8 °F 28.0 °F 35.1 °F 90% 29.57 in 4.0 mi NNW 18.4 mph 27.6 mph N/A Rain Light Rain
11:54 AM 37.8 °F 27.7 °F 35.2 °F 91% 29.57 in 3.0 mi North 19.6 mph 34.5 mph N/A Rain Light Rain
12:14 PM 37.6 °F 28.4 °F 35.2 °F 91% 29.57 in 3.0 mi NNW 16.1 mph 24.2 mph N/A Rain Light Rain
12:35 PM 37.8 °F 29.4 °F 35.6 °F 92% 29.57 in 4.0 mi North 13.8 mph 26.5 mph N/A Rain Light Rain
12:54 PM 37.8 °F 29.0 °F 35.6 °F 92% 29.57 in 3.0 mi North 15.0 mph 26.5 mph N/A Rain Light Rain
1:15 PM 38.3 °F 29.3 °F 36.0 °F 91% 29.56 in 3.0 mi North 16.1 mph 27.6 mph N/A Rain Light Rain
1:34 PM 38.5 °F 28.9 °F 36.1 °F 91% 29.56 in 4.0 mi North 18.4 mph 26.5 mph N/A Rain Light Rain
1:54 PM 38.7 °F 29.8 °F 36.5 °F 92% 29.56 in 4.0 mi North 16.1 mph 26.5 mph N/A Rain Light Rain
2:15 PM 39.2 °F 30.5 °F 36.5 °F 90% 29.56 in 7.0 mi NNW 16.1 mph 25.3 mph N/A   Overcast
2:34 PM 39.4 °F 28.7 °F 36.5 °F 89% 29.55 in 10.0 mi North 24.2 mph 29.9 mph N/A   Overcast
2:54 PM 39.6 °F 29.7 °F 36.1 °F 88% 29.55 in 7.0 mi North 20.7 mph 28.8 mph N/A   Overcast
3:15 PM 39.6 °F 30.6 °F 36.5 °F 89% 29.55 in 7.0 mi North 17.3 mph 25.3 mph N/A   Overcast
3:34 PM 39.6 °F 30.3 °F 36.5 °F 89% 29.56 in 7.0 mi North 18.4 mph 26.5 mph N/A   Overcast
3:54 PM 39.6 °F 31.0 °F 36.7 °F 89% 29.56 in 7.0 mi NNW 16.1 mph 24.2 mph N/A   Overcast
4:15 PM 39.6 °F 31.7 °F 36.3 °F 88% 29.56 in 7.0 mi NNW 13.8 mph 27.6 mph N/A   Overcast
4:34 PM 40.1 °F 31.3 °F 36.9 °F 88% 29.56 in 7.0 mi NNW 17.3 mph 23.0 mph N/A   Overcast
4:55 PM 39.7 °F 31.2 °F 36.9 °F 89% 29.56 in 7.0 mi NNW 16.1 mph 25.3 mph N/A   Overcast
5:14 PM 39.7 °F 30.9 °F 36.9 °F 89% 29.56 in 7.0 mi NNW 17.3 mph 23.0 mph N/A   Overcast
5:34 PM 39.6 °F 30.3 °F 36.7 °F 89% 29.57 in 7.0 mi NNW 18.4 mph 23.0 mph N/A   Overcast
5:55 PM 39.6 °F 31.7 °F 36.3 °F 88% 29.58 in 10.0 mi NNW 13.8 mph 21.9 mph N/A   Overcast
6:14 PM 39.2 °F 30.5 °F 36.1 °F 89% 29.58 in 7.0 mi NNW 16.1 mph 26.5 mph N/A   Overcast
6:34 PM 39.2 °F 30.2 °F 36.1 °F 89% 29.59 in 7.0 mi NNW 17.3 mph 24.2 mph N/A   Overcast
6:55 PM 39.2 °F 31.6 °F 36.1 °F 89% 29.59 in 7.0 mi NNW 12.7 mph 17.3 mph N/A   Overcast
7:14 PM 38.8 °F 30.0 °F 36.0 °F 89% 29.60 in 7.0 mi NNW 16.1 mph 25.3 mph N/A   Overcast
7:34 PM 38.7 °F 30.9 °F 36.3 °F 91% 29.60 in 5.0 mi NNW 12.7 mph 19.6 mph N/A   Overcast
7:55 PM 38.5 °F 31.1 °F 36.5 °F 93% 29.61 in 5.0 mi NNW 11.5 mph 19.6 mph N/A   Overcast
8:14 PM 38.5 °F 29.9 °F 36.1 °F 91% 29.61 in 10.0 mi NNW 15.0 mph 20.7 mph N/A   Overcast
8:34 PM 38.7 °F 30.1 °F 36.1 °F 91% 29.61 in 7.0 mi NNW 15.0 mph 21.9 mph N/A   Overcast
8:55 PM 38.5 °F 30.3 °F 36.1 °F 91% 29.61 in 7.0 mi NNW 13.8 mph 20.7 mph N/A   Overcast
9:14 PM 38.7 °F 30.9 °F 36.0 °F 90% 29.61 in 10.0 mi NW 12.7 mph 20.7 mph N/A   Overcast
9:35 PM 38.5 °F 30.7 °F 35.6 °F 89% 29.61 in 7.0 mi NNW 12.7 mph 23.0 mph N/A Rain Light Rain
9:54 PM 38.5 °F 30.3 °F 35.6 °F 89% 29.61 in 10.0 mi NNW 13.8 mph 21.9 mph N/A Rain Light Rain
10:14 PM 38.3 °F 31.9 °F 35.8 °F 91% 29.61 in 7.0 mi NW 9.2 mph 18.4 mph N/A Rain Light Rain
10:35 PM 38.3 °F 29.7 °F 36.0 °F 91% 29.61 in 4.0 mi NNW 15.0 mph 19.6 mph N/A Rain Light Rain
10:54 PM 37.9 °F 30.9 °F 36.1 °F 93% 29.61 in 4.0 mi NW 10.4 mph - N/A   Overcast
11:14 PM 37.9 °F 30.9 °F 36.3 °F 94% 29.60 in 4.0 mi NW 10.4 mph 17.3 mph N/A   Overcast
11:35 PM 37.9 °F 31.5 °F 36.1 °F 93% 29.60 in 5.0 mi NNW 9.2 mph 16.1 mph N/A   Overcast
11:54 PM 37.9 °F 29.6 °F 36.1 °F 93% 29.60 in 7.0 mi NNW 13.8 mph 18.4 mph N/A   Overcast